Preview of NWS' New Version of Forecast
This preview is not operational and should not be used for support decisions.

Regional Weather Roundup (RWR)

Issued by Sioux Falls, SD (FSD)

                            
000
ASUS43 KFSD 241610
RWRFSD

WEATHER ROUNDUP FOR SE SOUTH DAKOTA/SW MINNESOTA/NW IOWA
NATIONAL WEATHER SERVICE SIOUX FALLS SD
1100 AM CDT WED APR 24 2019

NOTE: "FAIR" INDICATES FEW OR NO CLOUDS BELOW 12,000 FEET WITH NO
SIGNIFICANT WEATHER AND OR OBSTRUCTIONS TO VISIBILITY.


SDZ038>040-050-052>070-241700-
SOUTHEAST SOUTH DAKOTA
  
CITY           SKY/WX    TMP DP  RH WIND       PRES   REMARKS
CHAMBERLAIN    MOSUNNY   69  47  45 W3        29.82R                  
HURON          SUNNY     64  43  46 S6        29.80F                  
MADISON        FAIR      61  39  44 SW14      29.83F                  
MITCHELL       FAIR      63  42  46 S7        29.82F                  
SIOUX FALLS    MOSUNNY   66  38  35 SW15G28   29.83F                  
WINNER         FAIR      71  43  36 CALM      29.83S                  
YANKTON        MOSUNNY   68  36  30 S13       29.84F                  
$$

MNZ071-072-080-081-089-090-097-098-241700-
SOUTHWEST MINNESOTA
  
CITY           SKY/WX    TMP DP  RH WIND       PRES   REMARKS
FAIRMONT       SUNNY     62  42  47 S22       29.88F                  
JACKSON        SUNNY     61  37  41 S17G25    29.88F                  
LUVERNE        MOSUNNY   63  32  31 S17G25    29.85F                  
MARSHALL       CLOUDY    63  38  39 SW17G28   29.81R                  
MONTEVIDEO     CLOUDY    63  36  36 W13       29.78F                  
PIPESTONE      CLOUDY    63  45  51 NE13      29.84S                  
REDWOOD FALLS  CLOUDY    61  43  51 SW10      29.83R                  
TRACY          PTSUNNY   64  39  41 SW24G37   29.81S                  
WINDOM         MOSUNNY   63  41  45 S18       29.84F                  
WORTHINGTON    MOSUNNY   63  42  46 S20G30    29.85F                  
$$

IAZ001>003-012>014-020>022-031-032-NEZ013-014-SDZ071-241700-
NORTHWEST IOWA
  
CITY           SKY/WX    TMP DP  RH WIND       PRES   REMARKS
CHEROKEE       SUNNY     63  42  47 S13       29.89S                  
DENISON        SUNNY     63  43  48 SW7       29.93F                  
ESTHERVILLE    SUNNY     62  39  42 S17G26    29.88F                  
LE MARS          N/A    N/A N/A N/A MISG        N/A                   
SHELDON        SUNNY     63  43  48 S15G24    29.87S                  
SIOUX CITY     SUNNY     67  40  37 S14       29.88F                  
SPENCER        SUNNY     65  40  39 S17G26    29.89S                  
STORM LAKE     SUNNY     63  39  42 SW12G21   29.86F                  
$$
 
ABBREVIATIONS USED IN REMARKS
   TC - TEMPERATURE IN CELSIUS
  WCI - WIND CHILL INDEX
   HX - HEAT INDEX
  VSB - VISIBILITY